Back to catalog

CZ-4C DEB

AlivePO
NORAD 38295·DEBRIS·🇨🇳 China

Launched Nov 4, 2010 from Taiyuan Satellite Launch Center

Loading…

Next Passes (next 24 hours)

TLE

FreshSource: Space-Track

Epoch: Sep 14, 2026, 09:29 UTC

1 38295U 10059E   26257.39535976  .00000224  00000-0  22769-3 0  9998
2 38295  98.6438  85.9082 0267261 315.8549 160.4542 13.71476856680709

Track CZ-4C DEB in real time with AllMySat

Download on the App Store